| time (UTC) | temp F | wind direction | speed knots | gust knots | rain 1hr in | rain 24hr in | rain mn in | humidity % | barometer mb |
| 20260509194519 | 79 | 293 | 0.0 | 0.0 | 0.00 | 0.01 | 0.01 | 38 | 1009.9 |
| 20260509193051 | 79 | 224 | 0.0 | 0.0 | 0.00 | 0.01 | 0.01 | 35 | 1009.9 |
| 20260509191533 | 79 | 255 | 0.0 | 5.2 | 0.00 | 0.01 | 0.01 | 35 | 1009.9 |
| 20260509190014 | 80 | 234 | 0.9 | 6.1 | 0.00 | 0.01 | 0.01 | 33 | 1009.9 |
| 20260509184551 | 77 | 280 | 0.0 | 0.0 | 0.00 | 0.01 | 0.01 | 40 | 1010.0 |
| 20260509183036 | 77 | 302 | 0.0 | 2.6 | 0.00 | 0.01 | 0.01 | 39 | 1009.9 |
| 20260509181511 | 77 | 266 | 3.5 | 9.6 | 0.00 | 0.01 | 0.01 | 40 | 1010.1 |
| 20260509180052 | 77 | 300 | 5.2 | 10.4 | 0.00 | 0.01 | 0.01 | 37 | 1010.0 |
| 20260509174545 | 76 | 304 | 7.0 | 11.3 | 0.00 | 0.01 | 0.01 | 42 | 1010.1 |
| 20260509173018 | 76 | 286 | 2.6 | 7.0 | 0.00 | 0.01 | 0.01 | 41 | 1010.4 |
| 20260509171554 | 76 | 303 | 0.0 | 5.2 | 0.00 | 0.01 | 0.01 | 42 | 1010.4 |
| 20260509170032 | 75 | 252 | 2.6 | 8.7 | 0.00 | 0.01 | 0.01 | 41 | 1010.4 |
| 20260509164509 | 75 | 324 | 5.2 | 10.4 | 0.00 | 0.01 | 0.01 | 44 | 1010.5 |
| 20260509163049 | 74 | 264 | 3.5 | 5.2 | 0.00 | 0.01 | 0.01 | 48 | 1010.6 |
| 20260509161541 | 74 | 257 | 3.5 | 6.1 | 0.00 | 0.01 | 0.01 | 45 | 1010.6 |
| 20260509160007 | 73 | 307 | 0.0 | 0.0 | 0.00 | 0.01 | 0.01 | 53 | 1010.6 |
| 20260509154539 | 73 | 326 | 0.9 | 5.2 | 0.00 | 0.01 | 0.01 | 56 | 1010.5 |
| 20260509153029 | 72 | 238 | 0.0 | 3.5 | 0.00 | 0.01 | 0.01 | 54 | 1010.5 |
| 20260509151558 | 71 | 261 | 0.0 | 4.3 | 0.00 | 0.01 | 0.01 | 59 | 1010.6 |
| 20260509150039 | 69 | 244 | 0.0 | 2.6 | 0.00 | 0.01 | 0.01 | 63 | 1010.5 |
| 20260509144511 | 68 | 276 | 0.0 | 0.0 | 0.00 | 0.01 | 0.01 | 70 | 1010.5 |
| 20260509143055 | 67 | 256 | 0.0 | 3.5 | 0.00 | 0.01 | 0.01 | 73 | 1010.4 |
| 20260509141525 | 66 | 253 | 0.0 | 0.0 | 0.00 | 0.01 | 0.01 | 78 | 1010.3 |
| 20260509140006 | 64 | 190 | 0.9 | 3.5 | 0.00 | 0.01 | 0.01 | 79 | 1010.4 |
| 20260509134539 | 63 | 209 | 0.0 | 4.3 | 0.00 | 0.01 | 0.01 | 84 | 1010.4 |
| 20260509133023 | 62 | 207 | 1.7 | 4.3 | 0.00 | 0.01 | 0.01 | 85 | 1010.1 |
| 20260509131559 | 61 | 243 | 0.0 | 0.0 | 0.00 | 0.01 | 0.01 | 86 | 1010.1 |
| 20260509131501 | 61 | 243 | 0.0 | 0.0 | 0.00 | 0.01 | 0.01 | 87 | 1010.1 |
| 20260509130039 | 61 | 171 | 0.0 | 0.0 | 0.00 | 0.01 | 0.01 | 88 | 1010.1 |
| 20260509124516 | 59 | 225 | 0.0 | 0.0 | 0.00 | 0.01 | 0.01 | 90 | 1010.0 |
| 20260509123103 | 58 | 184 | 0.0 | 2.6 | 0.00 | 0.01 | 0.01 | 92 | 1010.0 |
| 20260509121529 | 57 | 252 | 0.0 | 3.5 | 0.01 | 0.01 | 0.01 | 92 | 1010.0 |
| 20260509120003 | 56 | 238 | 1.7 | 5.2 | 0.01 | 0.01 | 0.01 | 93 | 1009.8 |
| 20260509114543 | 55 | 235 | 0.0 | 5.2 | 0.01 | 0.01 | 0.01 | 94 | 1009.6 |
| 20260509113018 | 55 | 229 | 0.0 | 2.6 | 0.01 | 0.01 | 0.01 | 94 | 1009.5 |
| 20260509111555 | 54 | 205 | 0.0 | 0.0 | 0.00 | 0.00 | 0.00 | 94 | 1009.5 |
| 20260509110038 | 54 | 238 | 0.9 | 4.3 | 0.00 | 0.00 | 0.00 | 94 | 1009.4 |
| 20260509104521 | 54 | 213 | 0.0 | 0.0 | 0.00 | 0.00 | 0.00 | 94 | 1009.2 |
| 20260509103104 | 54 | 212 | 0.0 | 0.0 | 0.00 | 0.00 | 0.00 | 93 | 1009.2 |
| 20260509103007 | 54 | 212 | 0.0 | 0.0 | 0.00 | 0.00 | 0.00 | 93 | 1009.2 |
| 20260509101541 | 54 | 220 | 0.0 | 0.0 | 0.00 | 0.00 | 0.00 | 92 | 1009.2 |
| 20260509100023 | 54 | 220 | 0.0 | 0.0 | 0.00 | 0.00 | 0.00 | 92 | 1009.0 |
| 20260509094600 | 55 | 220 | 0.0 | 0.0 | 0.00 | 0.00 | 0.00 | 91 | 1009.2 |
| 20260509094500 | 55 | 220 | 0.0 | 0.0 | 0.00 | 0.00 | 0.00 | 91 | 1009.2 |
| 20260509093046 | 55 | 220 | 0.0 | 0.0 | 0.00 | 0.00 | 0.00 | 91 | 1009.4 |
| 20260509091525 | 56 | 220 | 0.0 | 0.0 | 0.00 | 0.00 | 0.00 | 90 | 1009.4 |
| 20260509090008 | 56 | 212 | 0.0 | 3.5 | 0.00 | 0.00 | 0.00 | 92 | 1009.3 |
| 20260509084548 | 55 | 167 | 0.0 | 2.6 | 0.00 | 0.00 | 0.00 | 92 | 1009.1 |
| 20260509083031 | 56 | 206 | 0.0 | 4.3 | 0.00 | 0.00 | 0.00 | 92 | 1009.1 |
| 20260509081513 | 56 | 213 | 0.0 | 0.0 | 0.00 | 0.00 | 0.00 | 93 | 1009.2 |
| 20260509080047 | 55 | 233 | 0.0 | 1.7 | 0.00 | 0.00 | 0.00 | 93 | 1009.2 |
| 20260509074527 | 55 | 245 | 0.0 | 0.0 | 0.00 | 0.00 | 0.00 | 93 | 1009.1 |
| 20260509073005 | 55 | 222 | 0.0 | 0.0 | 0.00 | 0.00 | 0.00 | 92 | 1009.0 |
| 20260509071552 | 56 | 212 | 1.7 | 5.2 | 0.00 | 0.00 | 0.00 | 92 | 1009.0 |
| 20260509070021 | 56 | 229 | 0.0 | 3.5 | 0.00 | 0.00 | 0.00 | 92 | 1009.0 |
| 20260509064503 | 55 | 229 | 0.0 | 4.3 | 0.00 | 0.00 | 0.00 | 93 | 1009.0 |
| 20260509063043 | 55 | 227 | 2.6 | 5.2 | 0.00 | 0.00 | 0.00 | 94 | 1009.2 |
| 20260509061516 | 55 | 243 | 0.0 | 0.0 | 0.00 | 0.00 | 0.00 | 94 | 1009.2 |
| 20260509054548 | 55 | 264 | 0.0 | 0.0 | 0.00 | 0.00 | 0.00 | 94 | 1009.5 |
| 20260509053017 | 55 | 264 | 0.0 | 0.0 | 0.00 | 0.00 | 0.00 | 93 | 1009.5 |
| 20260509051547 | 55 | 264 | 0.0 | 0.0 | 0.00 | 0.00 | 0.00 | 93 | 1009.4 |
| 20260509050045 | 56 | 306 | 0.0 | 0.0 | 0.00 | 0.00 | 0.00 | 92 | 1009.4 |
| 20260509044558 | 56 | 23 | 0.0 | 0.0 | 0.00 | 0.00 | 0.00 | 92 | 1009.1 |
| 20260509044503 | 57 | 23 | 0.0 | 0.0 | 0.00 | 0.00 | 0.00 | 92 | 1009.1 |
| 20260509043052 | 57 | 23 | 0.0 | 0.0 | 0.00 | 0.00 | 0.00 | 91 | 1009.1 |
| 20260509041527 | 58 | 212 | 0.0 | 4.3 | 0.00 | 0.00 | 0.00 | 90 | 1009.0 |
| 20260509040058 | 58 | 192 | 0.9 | 2.6 | 0.00 | 0.00 | 0.00 | 90 | 1009.0 |
| 20260509034539 | 59 | 212 | 0.0 | 2.6 | 0.00 | 0.00 | 0.00 | 89 | 1009.1 |
| 20260509033021 | 59 | 181 | 0.0 | 0.0 | 0.00 | 0.00 | 0.00 | 88 | 1009.0 |
| 20260509031623 | 59 | 102 | 0.0 | 0.9 | 0.00 | 0.00 | 0.00 | 88 | 1008.9 |
| 20260509031509 | 59 | 102 | 0.0 | 0.9 | 0.00 | 0.00 | 0.00 | 88 | 1008.9 |
| 20260509030041 | 59 | 33 | 0.0 | 1.7 | 0.00 | 0.00 | 0.00 | 89 | 1009.2 |
| 20260509024535 | 60 | 1 | 0.0 | 4.3 | 0.00 | 0.00 | 0.00 | 87 | 1009.5 |
| 20260509023017 | 61 | 359 | 0.0 | 10.4 | 0.00 | 0.00 | 0.00 | 86 | 1008.9 |
| 20260509021543 | 62 | 316 | 0.0 | 0.0 | 0.00 | 0.00 | 0.00 | 78 | 1008.4 |
| 20260509020023 | 65 | 291 | 0.0 | 0.0 | 0.00 | 0.00 | 0.00 | 63 | 1007.2 |
| 20260509014506 | 65 | 143 | 0.0 | 0.0 | 0.00 | 0.00 | 0.00 | 61 | 1006.4 |
| 20260509013048 | 65 | 143 | 0.0 | 0.0 | 0.00 | 0.00 | 0.00 | 60 | 1006.2 |
| 20260509011525 | 66 | 143 | 0.0 | 0.0 | 0.00 | 0.00 | 0.00 | 58 | 1005.9 |
| 20260509010013 | 67 | 148 | 0.0 | 0.0 | 0.00 | 0.00 | 0.00 | 57 | 1006.1 |
| 20260509004553 | 67 | 150 | 0.0 | 4.3 | 0.00 | 0.00 | 0.00 | 56 | 1006.3 |
| 20260509003031 | 68 | 124 | 0.0 | 3.5 | 0.00 | 0.00 | 0.00 | 56 | 1006.0 |
| 20260509001515 | 69 | 215 | 2.6 | 7.8 | 0.00 | 0.00 | 0.00 | 53 | 1006.5 |
| 20260509000103 | 70 | 222 | 0.0 | 2.6 | 0.00 | 0.00 | 0.00 | 51 | 1006.5 |
| 20260508234531 | 71 | 179 | 0.0 | 3.5 | 0.00 | 0.00 | 0.00 | 50 | 1006.4 |
| 20260508233007 | 72 | 138 | 0.0 | 6.1 | 0.00 | 0.00 | 0.00 | 51 | 1006.9 |
| 20260508231553 | 73 | 234 | 0.0 | 0.9 | 0.00 | 0.00 | 0.00 | 50 | 1007.2 |
| 20260508230037 | 72 | 241 | 0.0 | 5.2 | 0.00 | 0.00 | 0.00 | 49 | 1007.8 |
| 20260508224517 | 72 | 257 | 1.7 | 9.6 | 0.00 | 0.00 | 0.00 | 45 | 1008.2 |
| 20260508223059 | 73 | 233 | 0.9 | 4.3 | 0.00 | 0.00 | 0.00 | 45 | 1008.1 |
| 20260508223009 | 73 | 233 | 0.0 | 4.3 | 0.00 | 0.00 | 0.00 | 45 | 1008.1 |
| 20260508221541 | 73 | 227 | 0.0 | 2.6 | 0.00 | 0.00 | 0.00 | 43 | 1008.1 |
| 20260508220037 | 74 | 217 | 1.7 | 8.7 | 0.00 | 0.00 | 0.00 | 39 | 1007.8 |
| 20260508214515 | 77 | 131 | 0.0 | 6.1 | 0.00 | 0.00 | 0.00 | 39 | 1007.3 |
| 20260508213116 | 77 | 212 | 2.6 | 7.8 | 0.00 | 0.00 | 0.00 | 37 | 1007.1 |
| 20260508213005 | 77 | 206 | 4.3 | 7.8 | 0.00 | 0.00 | 0.00 | 37 | 1007.0 |
| 20260508211539 | 78 | 191 | 1.7 | 5.2 | 0.00 | 0.00 | 0.00 | 40 | 1007.2 |
| 20260508210011 | 78 | 194 | 1.7 | 8.7 | 0.00 | 0.00 | 0.00 | 41 | 1007.6 |
| 20260508204602 | 78 | 175 | 1.7 | 7.0 | 0.00 | 0.00 | 0.00 | 41 | 1007.8 |
| 20260508203035 | 78 | 126 | 0.9 | 7.8 | 0.00 | 0.00 | 0.00 | 44 | 1008.0 |
| 20260508201511 | 77 | 190 | 2.6 | 6.1 | 0.00 | 0.00 | 0.00 | 44 | 1008.4 |
| 20260508200059 | 77 | 217 | 0.9 | 7.8 | 0.00 | 0.00 | 0.00 | 44 | 1008.8 |